Flag Weather past 2 weeks in Santos, São Paulo, Brazil

Now
82 °F

Clear.


Feels Like: 81 °F
Forecast: N/A
Wind: 12 mph from Southeast

Location: Sao Paulo Airport

Current Time: Oct 30, 2014 at 8:54:37 PM

Latest Report: Oct 30, 2014 at 8:00 PM


Visibility: 10 mi

Pressure: 29.92 "Hg

Humidity: 37%

Dew point: 54 °F

Location of SantosLocation

Historic Weather in Santos — Graph

°F

Santos temperature yesterday

Maximum temperature yesterday: 88 °F (at 4:00 PM)
Minimum temperature yesterday: 61 °F (at 3:00 AM)
Average temperature yesterday: 71 °F

Past Weeks' High & Low Weather Summary

 TemperatureHumidityPressure
High97 °F (Oct 17, 1:00 PM)88% (Oct 17, 2:00 AM)30.27 "Hg (Oct 17, 2:00 AM)
Low57 °F (Oct 28, 5:00 AM)19% (Oct 17, 1:00 PM)29.83 "Hg (Oct 30, 5:00 PM)
Average70 °F67%30.08 "Hg
* Reported Oct 15 6:00 PM — Oct 30 7:00 PM, Santos, Weather by CustomWeather, © 2014

Note: Actual official high and low records may vary slightly from our data, if they occured in-between our weather recording intervals... More about our weather records

Advertising

Santos weather history for previous 24 hours

 ConditionsComfort  
Time TempWeatherWind HumidityBarometerVisibility
7:00 PM
Oct 30
82 °FSunny.14 mph45%29.89 "Hg10 mi
6:00 PM86 °FSunny.14 mph38%29.83 "Hg10 mi
5:00 PM90 °FSunny.8 mph24%29.83 "Hg10 mi
4:00 PM90 °FSunny.13 mph26%29.86 "Hg10 mi
3:00 PM93 °FSunny.10 mph23%29.89 "Hg10 mi
2:00 PM91 °FSunny.9 mph26%29.89 "Hg10 mi
1:00 PM90 °FPartly sunny.12 mph27%29.92 "HgN/A
12:00 PM88 °FScattered clouds.14 mph29%29.95 "HgN/A
11:00 AM84 °FSunny.7 mph35%29.95 "Hg10 mi
10:00 AM79 °FSunny.7 mph39%29.95 "Hg10 mi
9:00 AM75 °FSunny.6 mph47%29.95 "Hg10 mi
8:00 AM72 °FSunny.5 mph53%29.92 "Hg10 mi
7:00 AM70 °FSunny.5 mph57%29.89 "Hg10 mi
6:00 AM70 °FClear.5 mph57%29.89 "Hg10 mi
5:00 AM70 °FClear.5 mph57%29.89 "Hg10 mi
4:00 AM70 °FClear.5 mph53%29.89 "Hg10 mi
3:00 AM72 °FClear.5 mph50%29.89 "Hg10 mi
2:00 AM70 °FClear.2 mph60%29.89 "Hg10 mi
1:00 AM70 °FClear.7 mph64%29.92 "Hg10 mi
12:00 AM70 °FClear.2 mph64%29.92 "Hg10 mi
11:00 PM
Oct 29
68 °FClear.2 mph73%29.95 "Hg5 mi
10:00 PM70 °FClear.3 mph73%29.95 "Hg5 mi
9:00 PM70 °FClear.6 mph73%29.92 "Hg10 mi
8:00 PM72 °FClear.7 mph65%29.89 "Hg10 mi
Weather by CustomWeather, © 2014

See weather overviewHow to use our weather pages